Temp
9 9 9 9 9 9 9 9 9 8 8 8 8 8 8 8 8 8 8 8 8 8 8 7 7 8 8 8 8 8 8 8 8 8 8 8 8 8 8 8 8 8 8 7 7 7 7 8 8 8 8 7 7 7 7 7 7 7 7 7 7 7 7 7 7 7 7 7 7 7 7 7 7 7 7 7 7 7 7 7 7 7 7 7 7
9 9 9 9 9 9 9 9 9 8 8 8 8 8 8 8 8 8 8 8 8 8 7 7 7 8 8 8 8 8 8 8 8 8 8 8 9 9 8 8 8 8 8 7 7 8 7 8 8 7 7 7 7 7 7 7 7 7 7 7 7 7 7 7 7 7 7 7 7 7 7 7 7 7 7 7 7 7 7 7 7 7 7 7 7
9 9 9 9 9 9 9 9 9 8 8 8 8 8 8 8 8 8 8 8 8 8 7 7 7 8 8 8 8 8 8 8 8 8 8 8 9 9 8 8 8 8 8 7 7 8 7 7 7 7 7 7 7 7 7 7 7 7 7 7 7 7 7 7 7 7 7 7 7 7 7 7 7 7 7 7 7 7 7 7 7 7 7 7 7
9 9 9 9 9 9 9 9 9 8 8 8 8 8 8 8 8 8 8 8 8 8 8 7 7 7 8 8 8 8 8 8 8 8 8 8 8 8 8 8 8 8 8 8 8 8 7 7 7 7 7 7 7 7 7 7 7 7 7 7 7 7 7 7 7 7 7 7 7 7 7 7 7 7 7 7 7 7 7 7 7 7 7 7 7
9 9 9 9 9 9 9 9 9 8 8 8 8 8 8 8 8 8 8 8 8 8 7 7 7 7 8 8 8 8 8 8 8 8 8 8 8 8 8 8 8 7 8 8 8 7 7 7 7 7 7 7 7 7 7 7 7 7 7 7 7 7 7 7 7 7 7 7 7 7 7 7 7 7 7 7 7 7 7 7 7 7 7 7 7
9 9 9 9 9 9 9 9 9 9 8 8 8 8 8 8 8 8 8 8 8 8 7 7 7 7 7 8 8 9 9 8 8 8 8 8 8 7 7 7 8 7 7 8 8 7 7 7 7 7 7 7 7 7 7 7 7 7 7 7 7 7 7 7 7 7 7 7 7 7 7 7 7 7 7 7 7 7 7 7 7 7 7 7 7
9 9 9 9 9 9 9 9 9 9 9 9 8 8 8 8 8 8 9 8 8 8 7 7 7 7 8 9 9 9 9 9 8 8 8 8 7 7 7 7 8 8 7 7 8 8 7 7 7 7 7 7 7 7 7 7 7 7 7 7 7 7 7 7 7 7 7 7 7 7 7 7 7 7 8 8 7 7 7 7 7 7 7 7 7
9 9 9 9 9 9 9 9 9 9 9 9 9 9 9 9 8 8 8 8 8 8 8 8 7 8 8 9 9 9 9 9 8 8 8 7 7 7 7 7 7 8 8 7 7 7 7 7 7 7 8 8 7 7 7 7 7 7 7 7 7 7 7 7 7 7 7 7 7 7 7 7 7 7 7 8 7 7 7 7 7 7 7 7 7
9 9 9 9 9 9 9 9 9 9 9 9 9 9 9 9 9 8 9 8 8 8 9 9 9 9 9 9 10 10 9 9 9 8 8 7 7 7 7 7 7 7 7 7 7 7 7 7 8 8 8 8 7 7 7 7 7 7 7 7 7 7 7 7 7 7 7 7 6 7 7 7 7 7 7 7 6 6 6 6 6 7 7 7 7
9 9 9 9 9 9 9 9 9 9 9 9 9 9 9 9 9 9 9 9 9 9 9 10 10 10 10 10 10 10 9 9 9 9 8 7 7 7 7 7 7 7 7 7 7 7 7 7 7 7 8 8 7 7 7 8 7 7 7 7 7 7 7 7 7 7 7 6 6 6 7 7 7 7 7 6 6 6 6 7 6 6 7 7 7
9 9 9 9 9 9 9 9 9 9 9 9 9 9 9 10 10 10 10 10 10 10 10 10 10 10 10 10 10 10 10 9 9 8 8 7 7 7 7 7 7 8 8 7 7 7 7 7 7 7 7 7 7 7 7 7 7 7 7 7 7 7 7 7 7 7 7 6 6 6 7 7 7 6 6 6 6 6 6 7 6 6 6 6 7
9 9 9 9 9 9 9 9 10 9 9 10 10 10 10 10 10 10 10 10 10 10 11 11 11 10 10 10 11 10 10 9 9 8 8 7 7 7 7 7 7 8 8 8 8 7 7 7 7 7 7 7 7 7 7 7 7 7 7 7 6 6 7 7 7 7 6 6 7 7 7 6 6 6 6 6 6 6 6 6 6 7 6 6 6
9 9 9 10 10 10 9 10 10 9 9 10 10 10 11 11 11 11 11 11 11 11 11 11 11 11 11 11 11 10 10 9 9 8 8 7 7 7 7 7 7 7 7 8 8 8 7 7 7 7 7 7 7 7 7 7 7 7 7 7 7 6 7 7 7 6 6 6 6 7 7 6 6 6 6 6 6 6 6 6 6 7 6 6 6
9 10 10 10 10 10 10 10 10 9 10 10 10 11 11 11 11 11 11 11 11 11 11 11 11 11 11 11 11 11 10 9 9 8 8 7 7 7 7 7 7 7 7 7 8 8 8 8 8 7 7 7 7 7 7 7 7 7 7 7 7 7 7 7 7 7 6 6 6 7 7 6 6 6 6 6 6 6 6 6 6 6 6 6 6
10 10 10 10 10 10 10 10 10 10 10 11 11 11 11 11 11 11 11 11 11 11 11 11 11 11 11 11 11 10 10 10 9 8 8 8 8 8 8 7 7 7 7 7 8 8 8 8 8 8 8 8 8 7 7 7 7 7 7 7 7 7 7 7 6 7 7 7 7 7 6 6 6 6 6 6 6 6 6 6 6 6 6 6 6
10 10 10 10 10 10 10 10 10 10 11 11 11 11 11 11 11 11 11 11 11 11 11 11 11 11 11 10 10 10 10 10 9 9 8 8 8 8 8 8 8 8 7 7 7 8 8 8 8 8 8 8 8 8 8 7 7 7 7 7 7 7 7 7 6 6 7 7 6 6 6 6 6 6 6 6 6 6 6 6 6 6 6 6 6
10 10 10 10 10 10 10 10 10 11 11 11 11 11 11 11 11 11 10 10 10 10 10 10 10 10 10 10 10 10 10 10 9 9 9 8 8 8 8 8 8 8 8 7 7 7 7 7 8 8 8 7 7 8 8 8 7 7 7 7 7 7 7 7 7 7 7 7 7 7 7 7 6 6 6 6 6 6 6 6 6 6 6 6 6
10 10 10 10 10 10 10 10 11 11 11 11 11 11 11 11 10 10 10 10 10 10 10 10 10 10 10 10 10 10 10 10 10 9 9 8 8 8 8 8 8 8 8 7 7 7 7 7 8 8 8 8 7 7 7 7 7 7 7 7 7 6 6 6 6 6 6 7 7 7 7 7 6 6 6 6 6 6 6 6 6 6 6 6 6
10 10 10 10 10 10 10 11 11 11 11 11 11 11 11 10 10 10 10 10 10 10 10 10 10 10 10 9 9 10 10 10 9 9 9 9 8 8 8 8 8 8 8 7 7 7 7 7 7 7 8 8 7 7 7 7 7 7 7 7 7 6 6 6 6 6 6 6 6 6 6 6 6 6 6 6 6 6 6 6 6 6 6 6 6
10 10 10 10 10 10 10 11 11 11 11 11 11 11 11 10 10 10 10 10 10 10 10 10 10 10 10 9 9 9 10 10 9 9 9 9 8 8 8 8 8 8 8 7 7 6 6 6 6 7 7 7 7 7 7 7 7 6 6 6 6 6 6 6 6 6 6 6 6 6 6 6 6 6 6 7 7 7 6 6 6 6 6 6 6
10 10 10 10 10 10 11 11 11 11 11 11 11 11 10 10 10 10 10 10 10 10 10 10 9 9 9 9 9 9 9 9 9 9 9 9 9 8 8 8 8 8 8 7 7 6 6 6 6 6 6 6 6 6 6 7 6 6 6 6 6 6 6 6 6 6 6 6 6 6 6 6 6 6 6 6 6 6 6 6 6 6 6 6 6
10 10 10 10 10 10 11 11 11 11 11 11 11 11 10 10 10 10 10 10 10 10 10 9 9 9 9 9 9 9 9 9 9 9 9 9 9 8 8 8 8 8 8 8 7 7 6 6 5 5 5 5 6 6 6 6 6 6 6 6 5 5 5 5 6 6 6 6 6 6 6 6 6 6 6 6 6 6 6 6 6 6 6 6 6
10 10 10 10 10 10 11 11 11 11 11 11 11 11 10 10 10 10 10 10 10 10 9 9 9 9 9 9 9 9 9 9 9 9 9 9 9 9 8 8 8 8 8 8 7 7 6 6 6 5 5 5 5 5 5 5 5 5 5 5 5 5 5 5 5 5 5 5 5 5 5 5 5 6 6 6 6 6 6 6 6 6 6 6 6
10 10 10 10 10 11 11 11 11 11 11 11 11 11 10 10 10 10 10 10 10 10 9 9 9 9 9 9 9 9 9 9 9 9 9 9 9 9 8 8 8 8 8 8 7 7 7 6 6 6 5 5 5 5 5 5 5 5 5 5 5 5 4 4 5 5 5 5 5 5 5 5 5 5 5 5 5 5 5 5 5 6 6 6 6
10 10 10 10 10 11 11 11 11 11 11 11 11 11 10 10 10 10 10 10 10 10 10 9 9 9 9 9 9 9 8 8 8 8 8 8 8 8 8 8 8 8 8 8 7 7 7 7 6 6 6 5 5 5 5 5 5 5 5 5 4 4 4 4 4 4 5 5 5 5 5 5 5 5 5 5 5 5 5 5 5 5 5 5 5
10 10 10 10 10 11 11 11 11 11 11 11 11 11 10 10 10 10 10 10 10 10 10 10 9 9 9 9 9 9 8 8 8 8 8 8 8 8 8 8 8 8 8 7 7 7 7 7 7 6 6 6 6 5 5 5 5 5 5 4 4 4 4 4 4 5 5 5 5 5 5 5 5 5 5 5 5 5 5 5 5 5 5 5 5
10 10 10 10 10 11 11 11 11 11 11 11 11 11 11 10 10 10 10 10 10 10 10 10 9 9 9 9 9 8 8 8 8 8 8 8 8 8 8 8 8 8 8 7 7 7 6 6 6 6 6 6 6 5 5 5 5 5 5 5 4 4 4 4 5 5 5 5 5 5 5 5 5 5 5 5 5 4 4 4 4 5 5 5 5
10 10 10 10 10 11 11 11 11 11 11 11 11 11 11 11 10 11 10 10 10 10 10 10 9 9 9 9 9 8 8 8 8 8 8 7 7 8 8 8 8 8 7 7 7 6 6 6 6 6 6 6 5 5 5 5 5 5 5 5 5 5 5 5 5 5 5 5 5 4 5 5 5 5 5 5 5 4 4 4 4 4 4 4 4
11 10 10 10 10 11 11 11 12 12 11 11 11 11 11 11 11 11 10 10 10 10 10 10 9 9 9 9 8 8 8 8 8 8 7 7 7 7 7 7 7 7 7 7 6 6 6 6 6 6 5 5 5 5 5 5 5 5 5 5 5 5 5 5 4 4 4 4 4 4 5 5 5 5 5 5 4 4 4 4 4 4 4 4 4
11 11 11 10 11 11 11 12 12 12 11 11 11 11 11 11 11 11 10 10 10 10 10 10 9 9 9 9 8 8 8 8 8 8 7 7 7 7 7 7 7 7 7 7 6 6 6 6 5 5 5 5 5 5 5 5 5 5 5 5 5 5 5 4 4 4 4 4 4 4 5 5 5 5 5 5 5 4 4 4 4 4 4 4 4
12 11 11 11 11 12 12 12 12 12 12 11 11 11 11 11 11 11 10 10 10 10 10 10 9 9 9 8 8 8 8 7 7 7 7 7 7 7 7 7 7 7 7 6 6 6 6 5 5 5 5 5 5 5 5 5 5 5 5 5 5 5 4 4 4 4 4 4 4 4 4 4 5 5 5 5 5 5 4 4 4 4 4 4 4
12 12 12 12 12 12 12 12 12 12 12 12 11 11 11 11 11 11 11 11 10 10 10 9 9 9 9 9 8 8 8 7 7 7 7 7 7 7 7 7 7 7 7 6 6 6 6 5 5 5 5 4 4 4 4 4 4 4 4 4 4 4 4 4 4 4 4 4 4 4 4 4 4 4 5 5 5 5 5 4 4 4 4 4 4
12 12 12 12 12 12 12 12 12 12 12 12 11 11 11 11 11 11 11 11 10 10 10 9 9 9 9 9 9 8 8 7 7 7 7 7 7 7 7 7 7 7 6 6 6 6 6 5 5 5 5 4 4 4 4 4 4 4 4 4 4 4 4 4 4 4 4 4 4 4 4 4 4 4 4 4 4 4 4 4 4 4 4 4 4
12 12 12 12 12 12 12 12 12 12 12 12 12 11 11 11 11 11 11 11 10 10 10 10 9 9 9 9 9 8 8 8 7 7 7 7 7 6 6 6 6 6 6 6 6 5 5 5 5 5 4 4 4 4 4 4 4 4 4 4 4 4 4 4 4 4 4 4 4 4 4 4 4 4 4 4 4 4 4 4 4 4 4 4 4
12 12 13 13 12 12 12 12 12 12 12 12 12 11 11 11 11 11 11 11 10 10 10 10 10 10 9 9 8 8 8 8 7 7 7 7 7 6 6 6 6 6 6 6 6 5 5 5 5 5 4 4 4 4 4 4 4 4 4 4 4 4 4 4 4 4 4 4 3 4 4 4 4 4 4 4 4 4 4 4 4 4 4 4 4
13 13 13 13 13 13 12 12 12 12 12 12 12 12 11 11 11 11 11 11 11 10 10 10 10 10 9 9 8 8 8 8 7 7 7 7 7 6 6 6 6 6 6 6 5 5 5 5 5 5 4 4 4 4 4 4 4 3 3 3 3 3 3 3 3 3 4 3 3 3 4 4 4 4 4 4 4 4 4 4 4 4 4 4 4
13 13 13 13 13 13 12 12 12 12 12 12 12 12 12 11 11 11 11 11 11 11 10 10 10 9 9 9 8 8 8 8 7 7 7 7 7 6 6 6 6 6 6 6 5 5 5 5 5 5 4 4 4 4 4 4 3 3 3 3 3 3 3 3 3 3 3 3 3 3 3 3 3 3 3 3 3 3 3 4 4 4 4 4 4
13 13 13 13 13 13 12 12 12 12 12 12 12 12 12 12 11 11 11 11 11 11 11 10 10 9 9 8 8 8 8 8 7 7 7 7 7 7 6 6 6 5 5 5 5 5 5 5 5 5 4 4 4 4 4 3 3 3 3 3 3 3 3 3 3 3 3 3 3 3 3 3 3 3 3 3 3 3 3 3 3 4 4 4 4
14 13 13 13 13 13 12 12 12 12 12 12 12 12 12 12 12 12 11 11 11 11 11 10 10 9 9 9 9 9 8 8 8 8 7 7 7 7 6 6 6 5 5 5 5 5 5 5 5 5 5 5 5 4 4 3 3 3 3 3 3 3 3 3 3 3 3 3 3 3 3 3 3 3 3 3 3 3 3 3 3 3 4 4 4
14 14 13 13 13 13 12 12 12 12 12 12 12 12 12 12 12 12 12 11 11 11 11 10 10 10 10 10 10 9 9 8 8 8 8 7 7 7 7 6 6 5 5 5 5 5 5 5 5 5 4 5 4 4 3 3 3 3 3 3 3 3 3 3 3 3 3 3 3 3 3 3 3 3 3 3 3 3 4 4 4 4 4 4 4
14 14 13 13 13 13 13 13 13 13 13 12 12 12 12 12 12 12 12 12 11 11 11 10 10 10 11 11 10 9 9 8 8 8 8 8 7 7 7 6 6 6 5 5 5 5 5 5 4 4 4 4 4 3 3 3 3 3 3 3 3 3 3 3 3 3 3 3 3 3 3 3 3 3 3 3 3 3 3 4 4 4 4 4 4
14 14 14 13 13 13 13 13 13 13 13 12 12 12 12 12 12 12 12 12 12 11 11 11 11 11 11 11 10 9 9 8 8 8 8 8 8 7 7 6 6 6 5 5 5 5 4 4 4 4 4 4 4 3 3 3 3 3 3 3 3 3 3 3 3 3 3 3 3 3 3 3 3 3 3 3 3 3 3 3 4 4 4 4 4
14 14 14 14 13 13 13 13 13 13 13 12 12 12 12 12 12 12 12 12 12 11 11 11 11 12 11 11 10 9 8 8 8 8 8 8 8 7 7 6 6 6 6 5 5 4 4 4 4 4 4 4 4 3 3 3 3 3 3 3 3 3 3 3 3 3 3 3 3 3 3 3 3 3 3 3 3 3 3 3 3 3 3 3 3
15 14 14 14 14 13 13 13 13 13 13 13 12 12 12 12 12 12 12 12 12 12 11 11 12 12 11 10 9 9 9 9 9 8 8 8 8 7 7 6 6 6 6 5 5 4 4 4 4 4 4 4 3 3 3 3 3 3 3 3 3 3 3 3 3 3 3 3 3 3 3 3 3 3 3 3 3 3 3 3 2 3 3 3 3
15 15 15 14 14 14 13 13 13 13 13 13 12 12 12 12 12 12 12 12 12 12 12 12 12 12 11 10 9 9 9 9 9 9 8 8 8 7 7 7 7 6 6 5 5 5 4 4 4 4 4 4 3 3 3 3 3 3 3 2 2 2 2 2 2 3 3 3 3 3 3 3 3 3 3 3 2 2 2 2 2 2 2 2 3
15 15 15 14 14 14 14 13 13 13 13 13 13 12 12 12 13 13 13 12 12 12 12 12 12 12 11 10 9 9 9 9 9 8 8 8 8 7 7 7 7 6 6 5 5 5 4 4 4 4 4 3 3 3 3 2 2 2 2 2 2 2 2 2 2 3 3 3 3 3 3 3 3 3 3 3 3 2 2 2 2 2 2 2 2
15 15 15 15 14 14 14 14 13 13 13 13 13 13 12 13 13 13 13 12 12 12 12 12 12 12 12 11 10 9 8 9 8 8 8 8 7 7 7 7 6 6 5 5 5 5 4 4 4 4 4 3 3 3 2 2 3 3 2 2 2 2 2 3 3 3 3 3 3 3 3 3 3 3 3 3 2 2 2 2 2 2 2 2 2
15 15 15 15 14 14 14 14 14 13 13 13 13 13 13 13 13 13 13 13 12 12 12 12 12 12 12 12 11 10 9 9 9 8 8 8 8 8 7 7 6 6 5 5 5 5 4 4 4 4 3 3 3 3 3 3 3 2 2 2 2 2 3 3 3 3 3 3 3 3 3 3 3 2 2 2 2 2 2 1 2 2 2 2 2
15 15 15 15 15 14 14 14 14 14 13 13 13 13 13 13 13 13 13 13 12 12 12 12 12 12 12 12 12 11 10 10 9 9 8 8 8 8 7 7 6 6 5 5 5 5 4 4 4 3 3 3 3 3 3 3 2 2 2 2 2 3 3 3 3 3 3 3 3 3 3 3 2 2 2 2 2 1 1 1 1 1 1 1 2
15 15 15 15 14 14 14 14 14 14 13 13 13 13 13 13 13 13 13 13 12 12 12 12 12 12 12 12 12 11 10 10 10 9 9 8 8 7 7 6 6 5 5 5 5 4 4 4 3 3 3 3 3 3 3 3 2 2 2 3 3 3 3 3 3 3 3 3 2 2 2 2 2 2 2 2 2 1 1 1 1 1 1 1 2
15 15 15 15 14 14 14 14 14 14 14 13 13 13 13 13 13 13 13 13 13 12 12 12 12 12 12 12 12 11 10 10 9 9 9 8 7 7 7 6 6 5 5 5 5 4 4 4 3 3 3 3 3 3 3 2 2 3 3 3 3 3 3 3 3 3 3 2 2 2 2 2 2 1 1 1 2 1 1 1 1 1 1 2 2
Height
3221 3222 3222 3223 3223 3224 3224 3224 3224 3224 3224 3224 3224 3223 3223 3223 3222 3222 3222 3222 3222 3221 3220 3219 3218 3217 3216 3216 3215 3214 3214 3214 3214 3213 3213 3213 3213 3214 3215 3216 3217 3218 3218 3218 3218 3218 3219 3220 3220 3220 3221 3221 3221 3221 3222 3222 3222 3222 3222 3222 3222 3222 3223 3223 3223 3224 3224 3225 3225 3226 3226 3227 3227 3228 3228 3228 3228 3229 3229 3229 3230 3230 3230 3230 3230
3222 3222 3222 3223 3223 3223 3224 3224 3224 3224 3224 3224 3224 3224 3223 3223 3222 3222 3222 3222 3221 3221 3220 3220 3219 3217 3216 3216 3215 3215 3214 3214 3214 3213 3213 3213 3213 3213 3214 3215 3216 3217 3218 3218 3218 3218 3218 3219 3220 3220 3221 3221 3221 3222 3222 3222 3222 3222 3223 3223 3223 3223 3223 3223 3223 3223 3224 3224 3225 3225 3226 3227 3227 3228 3228 3228 3228 3229 3229 3229 3229 3230 3230 3230 3230
3221 3222 3222 3223 3223 3223 3223 3224 3224 3224 3224 3224 3224 3224 3224 3224 3223 3223 3222 3222 3221 3220 3219 3219 3218 3218 3217 3216 3215 3215 3214 3214 3213 3213 3213 3212 3212 3213 3213 3214 3215 3217 3218 3217 3217 3218 3218 3218 3219 3220 3220 3220 3221 3222 3222 3222 3222 3223 3223 3223 3223 3223 3223 3223 3223 3223 3224 3224 3224 3225 3225 3226 3227 3227 3228 3228 3228 3228 3229 3229 3229 3229 3229 3229 3229
3221 3221 3222 3222 3223 3223 3223 3223 3224 3224 3224 3224 3224 3224 3224 3224 3223 3223 3222 3222 3221 3220 3219 3218 3217 3217 3217 3216 3215 3214 3214 3214 3213 3213 3212 3212 3212 3213 3213 3214 3215 3216 3217 3217 3217 3217 3217 3218 3219 3219 3220 3220 3220 3221 3221 3222 3222 3223 3222 3222 3223 3223 3223 3223 3223 3223 3223 3224 3224 3224 3225 3225 3226 3226 3227 3227 3228 3228 3228 3228 3228 3228 3228 3228 3228
3220 3221 3222 3222 3223 3223 3223 3223 3224 3224 3224 3224 3224 3224 3223 3223 3223 3222 3222 3222 3221 3220 3219 3217 3216 3216 3215 3215 3215 3214 3214 3214 3213 3213 3212 3212 3212 3212 3213 3214 3215 3215 3216 3217 3217 3216 3217 3218 3219 3219 3219 3219 3220 3220 3221 3221 3222 3222 3222 3223 3223 3223 3223 3223 3223 3223 3223 3224 3224 3224 3224 3224 3225 3225 3226 3226 3227 3227 3227 3227 3227 3227 3227 3227 3228
3220 3221 3221 3222 3222 3223 3223 3224 3224 3224 3224 3224 3224 3223 3223 3223 3223 3222 3222 3221 3220 3219 3218 3217 3216 3215 3214 3214 3214 3214 3214 3214 3213 3213 3212 3212 3212 3212 3213 3214 3214 3214 3215 3216 3216 3216 3216 3218 3219 3220 3220 3220 3220 3220 3220 3221 3221 3222 3222 3223 3223 3223 3223 3223 3223 3223 3223 3224 3223 3223 3224 3224 3224 3224 3225 3225 3226 3226 3226 3226 3226 3226 3226 3227 3227
3220 3220 3221 3222 3222 3223 3223 3224 3224 3224 3224 3223 3223 3223 3223 3222 3222 3222 3221 3221 3220 3219 3217 3216 3215 3214 3214 3213 3214 3214 3214 3213 3213 3213 3212 3212 3213 3213 3213 3213 3214 3214 3214 3215 3215 3215 3216 3217 3218 3219 3220 3220 3220 3220 3220 3220 3220 3221 3221 3222 3222 3222 3222 3222 3222 3223 3223 3223 3223 3223 3223 3223 3224 3224 3224 3224 3225 3225 3225 3225 3225 3225 3226 3226 3226
3219 3220 3221 3221 3222 3223 3223 3223 3223 3223 3223 3223 3223 3222 3222 3222 3221 3221 3221 3221 3219 3218 3217 3216 3215 3214 3213 3213 3213 3213 3214 3213 3213 3213 3213 3212 3213 3213 3213 3213 3213 3214 3214 3214 3215 3215 3216 3216 3217 3218 3219 3219 3219 3220 3220 3220 3220 3220 3220 3221 3221 3222 3222 3222 3222 3222 3222 3222 3222 3223 3223 3223 3223 3224 3224 3224 3223 3223 3224 3224 3225 3225 3225 3226 3226
3219 3219 3220 3221 3222 3222 3223 3223 3223 3223 3223 3223 3222 3222 3222 3221 3221 3220 3220 3220 3219 3218 3217 3216 3215 3214 3213 3212 3212 3213 3213 3213 3213 3213 3213 3213 3213 3213 3213 3213 3214 3214 3214 3214 3215 3215 3215 3216 3216 3217 3217 3217 3218 3219 3220 3220 3220 3219 3219 3220 3220 3221 3221 3221 3222 3222 3222 3222 3222 3222 3222 3223 3223 3223 3223 3223 3222 3222 3223 3224 3224 3224 3225 3225 3225
3218 3219 3220 3221 3221 3222 3222 3223 3223 3223 3222 3222 3222 3222 3221 3220 3220 3219 3219 3219 3218 3217 3217 3216 3215 3214 3213 3212 3212 3212 3212 3212 3213 3213 3213 3213 3212 3213 3213 3213 3214 3214 3214 3215 3215 3215 3215 3215 3216 3216 3216 3216 3217 3217 3218 3219 3219 3219 3219 3219 3219 3219 3220 3220 3221 3221 3221 3221 3221 3221 3221 3222 3222 3222 3222 3222 3222 3222 3224 3225 3224 3224 3225 3225 3225
3217 3219 3219 3220 3221 3221 3222 3222 3222 3222 3222 3222 3221 3221 3220 3220 3219 3219 3218 3218 3217 3217 3216 3215 3215 3214 3213 3212 3212 3212 3212 3212 3213 3213 3213 3212 3212 3212 3213 3213 3213 3214 3214 3214 3215 3215 3215 3215 3216 3216 3216 3216 3217 3217 3217 3218 3218 3218 3218 3219 3218 3218 3218 3218 3219 3220 3220 3220 3220 3220 3220 3220 3220 3220 3220 3220 3220 3222 3224 3224 3223 3224 3224 3223 3223
3217 3218 3219 3220 3221 3221 3221 3222 3221 3221 3221 3221 3221 3220 3220 3219 3219 3218 3218 3217 3217 3217 3216 3215 3215 3214 3213 3213 3212 3212 3212 3212 3212 3213 3213 3212 3212 3213 3213 3213 3213 3213 3213 3214 3214 3215 3215 3215 3215 3216 3216 3216 3216 3217 3217 3217 3217 3217 3217 3217 3218 3217 3217 3217 3218 3218 3218 3218 3219 3219 3219 3218 3218 3218 3219 3219 3219 3221 3222 3222 3223 3224 3223 3222 3222
3216 3217 3219 3219 3220 3220 3220 3220 3220 3220 3220 3220 3220 3219 3219 3219 3219 3219 3218 3218 3217 3217 3216 3215 3215 3214 3213 3213 3212 3212 3212 3212 3212 3212 3212 3212 3213 3212 3212 3212 3212 3213 3213 3213 3213 3214 3214 3214 3214 3215 3215 3215 3215 3216 3216 3216 3216 3216 3216 3216 3217 3217 3217 3217 3217 3217 3216 3216 3217 3217 3217 3216 3217 3217 3218 3217 3217 3218 3220 3220 3222 3222 3221 3220 3221
3215 3216 3218 3219 3219 3219 3219 3219 3219 3219 3219 3219 3219 3219 3219 3219 3219 3219 3218 3218 3218 3217 3216 3215 3215 3214 3213 3213 3212 3212 3212 3212 3212 3212 3212 3212 3212 3212 3212 3212 3212 3212 3212 3212 3213 3213 3213 3213 3213 3214 3214 3214 3214 3214 3215 3215 3215 3215 3215 3215 3215 3216 3215 3215 3215 3215 3215 3215 3215 3215 3215 3214 3215 3216 3216 3215 3215 3216 3217 3218 3219 3220 3220 3219 3219
3214 3216 3217 3218 3218 3218 3218 3218 3218 3218 3218 3218 3219 3219 3219 3219 3219 3219 3219 3219 3218 3218 3217 3216 3215 3214 3214 3213 3213 3212 3212 3213 3213 3212 3212 3212 3213 3213 3212 3212 3212 3212 3212 3212 3212 3212 3212 3213 3213 3213 3213 3213 3213 3213 3213 3214 3214 3214 3214 3213 3214 3214 3214 3214 3214 3214 3214 3214 3214 3214 3213 3212 3213 3213 3213 3214 3214 3214 3215 3215 3216 3217 3218 3217 3217
3214 3215 3216 3217 3217 3218 3218 3217 3217 3217 3218 3218 3219 3219 3219 3219 3219 3219 3219 3219 3219 3218 3217 3217 3216 3215 3214 3213 3213 3213 3213 3213 3213 3213 3212 3213 3213 3213 3213 3212 3212 3212 3212 3212 3212 3212 3212 3212 3212 3212 3212 3213 3212 3212 3212 3212 3212 3212 3213 3212 3212 3213 3213 3213 3213 3213 3213 3213 3213 3213 3212 3211 3211 3211 3211 3212 3212 3212 3213 3213 3213 3215 3216 3215 3215
3213 3214 3215 3216 3216 3217 3217 3217 3217 3217 3218 3218 3219 3219 3220 3220 3220 3220 3220 3219 3219 3219 3218 3217 3216 3215 3215 3214 3214 3214 3214 3213 3213 3213 3213 3213 3213 3213 3213 3213 3213 3213 3212 3212 3212 3211 3211 3211 3211 3211 3212 3212 3212 3211 3211 3211 3211 3211 3211 3211 3211 3211 3211 3211 3211 3211 3211 3211 3211 3211 3211 3210 3210 3210 3210 3210 3210 3210 3210 3210 3211 3212 3213 3212 3212
3212 3213 3214 3215 3215 3216 3216 3216 3217 3217 3218 3218 3219 3219 3220 3220 3220 3220 3220 3220 3220 3219 3218 3218 3217 3216 3215 3215 3214 3214 3214 3214 3214 3213 3213 3213 3213 3213 3213 3213 3214 3213 3213 3212 3212 3211 3211 3211 3211 3211 3211 3211 3211 3210 3210 3209 3209 3209 3209 3210 3210 3210 3210 3210 3209 3209 3209 3209 3209 3209 3209 3209 3208 3208 3208 3208 3208 3208 3208 3208 3208 3209 3209 3210 3210
3210 3212 3213 3213 3214 3215 3215 3216 3216 3217 3218 3218 3219 3219 3220 3220 3220 3220 3220 3220 3220 3219 3219 3218 3217 3216 3216 3215 3215 3214 3214 3214 3214 3214 3214 3214 3213 3213 3213 3213 3213 3213 3213 3212 3212 3211 3211 3210 3210 3210 3210 3210 3210 3210 3209 3209 3209 3208 3208 3209 3208 3208 3208 3208 3208 3207 3207 3207 3207 3207 3207 3207 3207 3206 3206 3206 3205 3205 3205 3205 3205 3206 3206 3207 3207
3209 3210 3211 3212 3213 3214 3214 3215 3216 3217 3218 3218 3219 3219 3220 3220 3221 3221 3221 3220 3220 3220 3219 3218 3217 3217 3216 3215 3215 3215 3214 3214 3214 3214 3214 3214 3213 3213 3213 3213 3213 3213 3213 3213 3212 3211 3211 3210 3209 3209 3208 3208 3209 3209 3208 3208 3208 3208 3207 3207 3207 3207 3207 3207 3206 3206 3206 3205 3205 3205 3205 3205 3205 3205 3204 3204 3203 3203 3203 3203 3203 3203 3203 3204 3204
3207 3209 3210 3211 3212 3213 3214 3215 3216 3217 3217 3218 3219 3219 3220 3220 3221 3221 3221 3221 3220 3220 3219 3218 3218 3217 3216 3216 3215 3215 3215 3214 3214 3214 3214 3214 3213 3213 3212 3213 3213 3212 3212 3212 3212 3212 3211 3210 3210 3209 3208 3207 3207 3208 3208 3207 3207 3206 3206 3206 3206 3206 3206 3205 3205 3205 3204 3204 3204 3203 3203 3203 3203 3202 3202 3202 3202 3201 3201 3201 3200 3200 3201 3201 3201
3206 3208 3209 3210 3211 3212 3213 3214 3215 3216 3217 3218 3219 3219 3220 3220 3221 3221 3221 3221 3220 3220 3219 3219 3218 3217 3217 3216 3216 3215 3215 3215 3214 3214 3213 3213 3213 3213 3212 3212 3212 3212 3212 3212 3212 3212 3211 3211 3210 3209 3209 3208 3207 3207 3207 3206 3206 3205 3205 3205 3205 3204 3204 3204 3204 3203 3203 3202 3202 3202 3201 3201 3201 3200 3200 3200 3199 3199 3199 3198 3198 3198 3198 3198 3198
3205 3206 3208 3209 3210 3211 3213 3214 3215 3216 3217 3218 3219 3219 3220 3220 3220 3221 3221 3221 3220 3220 3220 3219 3218 3218 3217 3216 3216 3216 3215 3215 3214 3214 3213 3213 3213 3212 3212 3212 3212 3212 3211 3211 3211 3211 3211 3211 3210 3210 3209 3208 3207 3207 3206 3206 3205 3204 3204 3204 3203 3203 3203 3203 3202 3202 3202 3201 3200 3200 3199 3199 3198 3198 3198 3197 3197 3197 3196 3196 3196 3195 3195 3195 3195
3203 3205 3206 3208 3209 3211 3212 3213 3214 3215 3216 3217 3218 3219 3219 3220 3220 3220 3221 3220 3220 3220 3220 3219 3218 3218 3217 3216 3216 3216 3215 3215 3215 3214 3214 3213 3213 3212 3212 3211 3211 3211 3210 3210 3210 3211 3211 3211 3210 3210 3209 3208 3208 3207 3206 3206 3205 3204 3203 3203 3202 3202 3202 3202 3201 3201 3200 3200 3199 3198 3198 3197 3196 3196 3195 3195 3194 3194 3194 3193 3193 3193 3192 3192 3192
3202 3204 3206 3207 3208 3210 3211 3212 3213 3214 3215 3216 3217 3218 3218 3219 3219 3220 3220 3220 3220 3220 3219 3219 3219 3218 3217 3216 3216 3215 3215 3214 3214 3214 3213 3213 3212 3212 3211 3211 3210 3210 3210 3210 3210 3210 3210 3210 3210 3209 3209 3208 3208 3207 3206 3205 3204 3204 3203 3202 3202 3201 3201 3200 3200 3199 3199 3198 3198 3197 3196 3196 3195 3194 3193 3192 3192 3192 3191 3191 3191 3190 3190 3190 3190
3200 3202 3204 3205 3207 3208 3209 3211 3212 3213 3214 3215 3216 3217 3218 3218 3219 3219 3219 3219 3219 3219 3219 3219 3218 3218 3217 3216 3216 3215 3214 3214 3213 3213 3212 3212 3212 3211 3210 3210 3209 3209 3209 3209 3209 3209 3209 3209 3209 3208 3208 3208 3207 3207 3206 3205 3204 3203 3203 3202 3202 3201 3200 3199 3198 3198 3197 3197 3196 3196 3195 3194 3193 3192 3192 3191 3190 3189 3189 3188 3188 3188 3187 3187 3187
3198 3200 3201 3203 3204 3206 3207 3209 3210 3212 3213 3214 3215 3216 3217 3217 3218 3218 3218 3218 3219 3219 3219 3218 3218 3217 3217 3216 3215 3215 3214 3213 3212 3212 3212 3211 3211 3210 3210 3209 3209 3209 3208 3208 3208 3208 3208 3208 3207 3207 3207 3207 3206 3206 3205 3204 3203 3202 3202 3201 3201 3200 3199 3198 3198 3197 3196 3195 3194 3194 3193 3192 3191 3190 3189 3189 3188 3187 3187 3186 3185 3185 3185 3184 3184
3196 3197 3199 3200 3202 3204 3206 3207 3209 3210 3212 3213 3214 3215 3216 3216 3216 3217 3217 3217 3218 3218 3218 3217 3217 3217 3216 3215 3214 3214 3213 3212 3212 3211 3211 3210 3210 3210 3209 3209 3208 3208 3208 3208 3208 3207 3207 3206 3206 3206 3205 3205 3205 3204 3204 3203 3202 3201 3201 3200 3200 3199 3198 3197 3197 3196 3195 3193 3192 3192 3191 3190 3189 3188 3188 3187 3186 3185 3185 3184 3183 3182 3182 3182 3181
3194 3195 3197 3198 3200 3202 3204 3205 3207 3208 3210 3212 3213 3213 3214 3215 3215 3215 3216 3216 3216 3217 3217 3216 3216 3216 3215 3214 3214 3213 3212 3211 3211 3210 3210 3210 3209 3209 3209 3208 3208 3207 3207 3207 3207 3206 3205 3205 3205 3204 3204 3203 3203 3202 3202 3201 3200 3199 3199 3199 3199 3198 3197 3196 3196 3195 3193 3192 3191 3190 3189 3188 3187 3186 3185 3184 3184 3183 3182 3182 3181 3180 3179 3179 3178
3192 3193 3194 3196 3198 3200 3202 3203 3205 3207 3208 3210 3211 3212 3213 3213 3213 3214 3214 3215 3215 3215 3215 3215 3214 3214 3214 3213 3212 3211 3211 3210 3210 3209 3209 3208 3208 3208 3207 3207 3206 3206 3205 3205 3205 3205 3204 3203 3203 3202 3202 3201 3200 3200 3199 3199 3198 3197 3197 3197 3197 3196 3195 3195 3194 3193 3192 3191 3189 3188 3187 3186 3185 3184 3183 3182 3181 3180 3179 3179 3178 3178 3177 3177 3176
3190 3192 3192 3194 3196 3198 3200 3202 3203 3205 3207 3208 3209 3210 3211 3211 3211 3212 3213 3213 3213 3213 3213 3213 3213 3212 3212 3211 3211 3210 3209 3209 3208 3208 3207 3207 3207 3206 3206 3205 3205 3204 3203 3203 3203 3203 3202 3202 3201 3200 3200 3199 3198 3198 3197 3197 3196 3195 3194 3194 3194 3194 3193 3192 3192 3191 3190 3189 3188 3186 3185 3184 3183 3181 3180 3179 3178 3177 3176 3176 3175 3175 3175 3174 3174
3189 3190 3191 3192 3194 3196 3198 3200 3201 3203 3205 3206 3207 3208 3209 3209 3210 3210 3211 3211 3212 3211 3211 3211 3211 3210 3210 3209 3209 3208 3207 3207 3207 3206 3206 3205 3205 3205 3204 3203 3203 3202 3202 3201 3201 3201 3200 3200 3199 3198 3198 3197 3197 3196 3196 3195 3194 3193 3192 3192 3191 3191 3190 3189 3189 3188 3187 3186 3185 3184 3183 3182 3181 3179 3178 3177 3176 3175 3174 3173 3173 3172 3172 3171 3171
3186 3188 3190 3191 3193 3194 3196 3197 3199 3201 3202 3204 3205 3206 3207 3207 3208 3209 3209 3209 3209 3209 3209 3209 3209 3208 3208 3207 3207 3206 3205 3205 3204 3204 3204 3203 3203 3202 3202 3201 3201 3200 3200 3199 3199 3199 3199 3197 3196 3195 3195 3195 3194 3194 3193 3192 3191 3190 3190 3189 3188 3187 3187 3186 3185 3185 3184 3183 3182 3181 3180 3179 3178 3176 3175 3174 3173 3173 3172 3171 3170 3169 3168 3168 3167
3184 3186 3188 3190 3191 3192 3193 3195 3197 3199 3200 3201 3202 3203 3204 3205 3206 3207 3207 3207 3207 3207 3207 3207 3206 3206 3205 3205 3205 3204 3203 3202 3202 3202 3201 3200 3200 3200 3199 3199 3199 3198 3198 3197 3197 3197 3196 3195 3194 3193 3192 3192 3191 3191 3191 3190 3189 3188 3188 3187 3185 3185 3184 3183 3182 3182 3181 3180 3179 3178 3177 3176 3175 3174 3173 3172 3171 3170 3169 3168 3168 3167 3166 3165 3164
3182 3184 3186 3188 3190 3191 3192 3193 3195 3196 3198 3199 3199 3201 3202 3203 3204 3204 3204 3204 3205 3205 3205 3204 3204 3203 3203 3202 3202 3202 3201 3200 3200 3199 3198 3198 3197 3197 3197 3196 3196 3195 3195 3194 3194 3194 3193 3193 3192 3191 3190 3189 3189 3189 3188 3188 3187 3186 3185 3184 3183 3182 3181 3180 3179 3178 3178 3177 3176 3175 3174 3173 3171 3170 3169 3168 3168 3167 3166 3165 3164 3163 3162 3162 3161
3179 3182 3184 3186 3188 3189 3190 3191 3192 3194 3195 3196 3197 3198 3200 3200 3201 3202 3202 3202 3202 3202 3202 3202 3202 3201 3200 3200 3199 3199 3198 3198 3197 3197 3196 3195 3195 3194 3194 3194 3193 3193 3192 3192 3191 3190 3190 3190 3190 3189 3188 3187 3187 3186 3186 3185 3184 3183 3183 3182 3181 3180 3179 3178 3176 3176 3175 3173 3172 3172 3171 3170 3168 3167 3165 3164 3164 3163 3163 3162 3160 3159 3158 3157 3156
3177 3179 3181 3183 3185 3187 3188 3189 3190 3191 3192 3193 3194 3196 3197 3198 3198 3199 3199 3199 3200 3200 3200 3199 3199 3198 3197 3197 3196 3196 3195 3195 3194 3194 3194 3193 3192 3192 3192 3191 3191 3190 3190 3189 3188 3188 3187 3187 3187 3187 3186 3185 3185 3184 3183 3182 3181 3180 3180 3179 3179 3177 3176 3175 3174 3173 3172 3171 3170 3169 3168 3167 3165 3164 3163 3161 3160 3159 3158 3157 3157 3156 3155 3153 3152
3174 3176 3178 3180 3182 3184 3186 3187 3188 3188 3189 3190 3191 3193 3194 3195 3196 3196 3197 3197 3197 3197 3197 3197 3196 3195 3194 3194 3193 3193 3192 3192 3192 3192 3191 3190 3190 3189 3189 3189 3189 3188 3187 3186 3186 3185 3185 3185 3185 3184 3184 3183 3182 3181 3180 3179 3178 3178 3177 3176 3175 3174 3173 3172 3172 3170 3169 3168 3167 3166 3164 3163 3162 3160 3159 3159 3158 3156 3154 3153 3152 3152 3151 3150 3148
3171 3173 3175 3178 3180 3182 3184 3184 3185 3186 3186 3187 3188 3190 3191 3192 3193 3194 3194 3194 3194 3194 3194 3194 3193 3192 3191 3190 3190 3190 3190 3189 3189 3189 3188 3187 3187 3187 3186 3186 3186 3185 3184 3184 3183 3183 3182 3182 3182 3182 3181 3180 3179 3178 3177 3176 3176 3175 3173 3172 3172 3171 3170 3169 3169 3168 3166 3165 3164 3163 3162 3160 3158 3156 3155 3155 3154 3153 3151 3150 3148 3147 3146 3146 3145
3168 3170 3172 3175 3177 3179 3180 3181 3182 3183 3183 3184 3186 3187 3188 3189 3190 3191 3191 3191 3191 3191 3191 3190 3189 3188 3187 3187 3187 3187 3187 3187 3186 3186 3185 3184 3184 3183 3183 3182 3182 3181 3181 3180 3180 3180 3179 3179 3179 3178 3178 3177 3176 3175 3174 3174 3173 3172 3170 3168 3169 3169 3168 3167 3166 3165 3163 3162 3160 3160 3159 3157 3154 3153 3151 3150 3150 3148 3147 3145 3144 3143 3142 3141 3140
3165 3167 3169 3171 3173 3175 3176 3177 3178 3179 3179 3181 3183 3185 3186 3187 3187 3187 3188 3188 3188 3187 3187 3186 3185 3185 3184 3183 3184 3184 3184 3184 3183 3182 3181 3181 3180 3179 3179 3178 3178 3177 3176 3176 3176 3176 3176 3175 3175 3175 3174 3173 3173 3172 3171 3171 3170 3168 3167 3165 3165 3165 3164 3163 3163 3162 3160 3158 3156 3156 3155 3153 3151 3149 3148 3146 3145 3143 3142 3141 3140 3139 3138 3136 3135
3162 3164 3165 3167 3168 3170 3171 3173 3174 3175 3176 3178 3180 3182 3183 3183 3184 3184 3184 3184 3184 3184 3183 3182 3182 3181 3180 3180 3181 3181 3180 3181 3180 3179 3178 3177 3176 3175 3175 3174 3174 3173 3173 3172 3172 3172 3172 3171 3172 3171 3170 3170 3170 3169 3168 3167 3166 3165 3163 3162 3161 3161 3160 3159 3160 3160 3157 3153 3151 3151 3151 3149 3146 3145 3144 3143 3141 3139 3137 3136 3135 3134 3133 3131 3130
3158 3159 3161 3162 3164 3165 3167 3169 3170 3171 3173 3175 3178 3179 3180 3180 3180 3180 3180 3180 3180 3179 3179 3178 3178 3178 3178 3177 3177 3177 3177 3177 3177 3176 3175 3174 3173 3172 3171 3171 3170 3170 3170 3169 3169 3169 3168 3168 3168 3167 3166 3166 3166 3165 3164 3164 3163 3161 3160 3159 3158 3157 3156 3155 3155 3156 3154 3150 3147 3146 3147 3146 3143 3140 3140 3140 3137 3135 3133 3132 3131 3129 3127 3126 3125
3154 3155 3156 3157 3159 3161 3163 3164 3166 3167 3170 3173 3175 3176 3176 3177 3177 3177 3176 3176 3176 3175 3175 3175 3175 3175 3175 3174 3174 3174 3174 3174 3174 3173 3172 3171 3170 3169 3168 3168 3167 3167 3167 3166 3165 3165 3164 3164 3164 3163 3162 3162 3162 3161 3160 3160 3159 3158 3157 3156 3155 3153 3152 3151 3151 3150 3149 3146 3143 3141 3141 3142 3140 3136 3135 3135 3133 3130 3129 3127 3126 3124 3123 3121 3120
3149 3150 3151 3153 3155 3157 3158 3160 3162 3164 3166 3169 3171 3172 3172 3173 3173 3173 3172 3172 3172 3172 3172 3172 3172 3172 3171 3171 3172 3172 3172 3171 3171 3170 3169 3168 3167 3166 3165 3165 3164 3164 3163 3163 3162 3161 3161 3160 3160 3160 3159 3158 3158 3158 3157 3156 3156 3155 3154 3153 3152 3150 3149 3148 3147 3146 3145 3142 3139 3136 3136 3137 3136 3132 3131 3131 3128 3125 3124 3123 3121 3120 3118 3117 3115
3144 3145 3147 3149 3151 3152 3154 3156 3158 3160 3163 3165 3167 3168 3168 3169 3169 3169 3168 3168 3168 3168 3169 3169 3169 3169 3168 3167 3168 3168 3168 3168 3167 3166 3165 3164 3163 3162 3162 3161 3161 3161 3160 3159 3158 3158 3158 3157 3157 3156 3155 3155 3155 3155 3154 3153 3152 3151 3150 3149 3148 3147 3146 3144 3143 3142 3141 3138 3135 3132 3130 3131 3130 3127 3126 3126 3123 3120 3119 3118 3117 3115 3113 3112 3111
3140 3141 3143 3145 3147 3148 3150 3152 3154 3156 3159 3161 3162 3163 3165 3165 3165 3165 3164 3164 3164 3165 3165 3166 3166 3165 3164 3164 3163 3164 3164 3164 3163 3162 3161 3160 3159 3158 3158 3158 3158 3158 3157 3156 3155 3155 3154 3154 3153 3153 3152 3151 3152 3151 3150 3149 3148 3147 3147 3146 3145 3143 3142 3141 3140 3139 3137 3135 3132 3128 3125 3125 3124 3122 3121 3120 3117 3116 3115 3114 3112 3111 3109 3108 3107
3136 3137 3139 3140 3142 3144 3146 3148 3150 3152 3155 3156 3158 3159 3161 3161 3161 3160 3160 3160 3161 3161 3162 3162 3162 3162 3161 3160 3160 3159 3159 3159 3158 3157 3157 3156 3155 3155 3155 3155 3155 3154 3154 3153 3153 3152 3151 3151 3150 3150 3149 3149 3149 3148 3147 3146 3145 3144 3143 3142 3141 3140 3138 3137 3136 3135 3133 3131 3129 3124 3121 3121 3120 3117 3115 3115 3113 3112 3112 3110 3108 3106 3105 3104 3103
3131 3132 3134 3136 3138 3140 3142 3144 3146 3148 3150 3152 3154 3155 3157 3157 3157 3156 3156 3156 3156 3157 3158 3158 3158 3158 3157 3157 3156 3155 3155 3154 3154 3153 3152 3152 3152 3152 3152 3152 3151 3151 3151 3150 3150 3149 3148 3147 3147 3147 3146 3146 3145 3145 3144 3143 3142 3141 3140 3139 3138 3136 3134 3133 3131 3130 3129 3127 3124 3121 3118 3117 3116 3113 3111 3110 3110 3109 3108 3106 3104 3103 3101 3100 3099
3126 3128 3130 3132 3134 3135 3137 3140 3142 3144 3146 3148 3150 3151 3152 3152 3152 3152 3152 3152 3152 3153 3154 3155 3155 3154 3154 3153 3152 3151 3151 3150 3149 3148 3148 3149 3149 3149 3149 3148 3148 3147 3147 3147 3146 3146 3145 3144 3144 3144 3144 3143 3142 3142 3141 3140 3139 3138 3137 3136 3134 3133 3131 3129 3127 3125 3124 3123 3120 3117 3115 3114 3112 3110 3107 3105 3106 3106 3104 3102 3101 3099 3097 3096 3094
3123 3124 3126 3128 3129 3130 3133 3136 3138 3140 3141 3143 3145 3146 3147 3147 3147 3147 3147 3147 3148 3150 3150 3151 3151 3151 3150 3150 3149 3148 3147 3146 3145 3144 3144 3145 3146 3146 3145 3145 3145 3144 3144 3144 3143 3142 3142 3142 3142 3141 3141 3140 3139 3138 3137 3137 3136 3135 3134 3132 3131 3129 3127 3125 3123 3121 3120 3119 3117 3114 3112 3111 3109 3107 3104 3101 3101 3102 3102 3099 3097 3096 3094 3092 3090
Wind_Speed
2 1 1 0 1 1 1 1 2 2 3 3 4 5 6 8 9 10 10 9 9 9 10 12 13 13 13 12 12 11 9 6 4 3 2 1 2 5 7 8 7 6 5 5 4 4 3 2 2 2 1 0 1 0 1 0 1 1 1 2 3 4 4 5 5 6 6 6 6 6 5 4 4 4 3 3 2 1 1 1 2 3 3 3 3
3 3 2 2 2 2 2 2 2 2 2 3 4 5 6 8 9 10 10 10 10 10 10 11 12 12 12 12 12 10 8 7 5 4 3 3 1 3 6 7 7 6 6 6 5 5 4 4 3 2 2 1 2 2 1 1 1 1 1 2 3 4 5 5 5 6 6 6 6 6 6 5 5 4 3 2 2 1 1 1 2 2 3 3 3
4 4 4 4 4 4 3 3 2 2 2 3 4 5 6 6 8 9 10 11 12 12 12 11 11 11 11 11 12 10 7 7 6 5 4 4 3 3 4 6 7 7 7 7 6 6 6 6 5 4 3 3 3 3 2 2 1 1 1 2 3 3 4 5 5 6 6 7 7 7 7 6 6 5 4 4 3 2 2 2 3 3 4 4 4
5 5 5 5 5 5 4 3 3 2 3 3 4 5 6 6 8 9 10 11 11 12 13 13 12 11 11 10 11 10 6 7 6 5 4 5 5 5 3 4 6 7 8 8 7 7 7 7 6 6 5 4 4 4 3 2 3 3 3 3 3 3 4 4 5 6 6 7 7 8 8 7 7 6 6 6 5 4 3 3 4 4 5 5 5
6 6 6 6 6 5 4 4 3 2 3 4 5 6 7 7 8 10 10 11 11 12 13 13 12 12 12 10 9 8 6 6 6 4 3 3 5 5 3 2 5 6 8 9 9 9 8 8 7 7 6 5 5 4 3 3 4 4 5 5 4 4 5 4 4 5 5 7 7 8 8 8 8 8 7 7 7 6 5 5 6 6 6 6 6
7 7 7 6 6 5 5 4 2 2 3 4 5 6 7 8 9 10 11 11 11 11 12 12 12 13 14 12 10 8 5 6 6 4 1 2 4 4 3 1 4 6 7 9 10 10 10 9 8 8 8 7 6 5 4 4 5 5 5 6 6 6 6 5 4 5 5 6 7 7 8 8 8 9 9 8 8 7 7 7 7 7 7 7 7
7 7 7 6 5 5 4 3 2 2 3 4 5 6 8 9 10 10 10 12 12 11 12 11 11 13 14 13 11 9 6 5 5 4 1 2 3 2 2 1 3 5 7 9 10 11 11 10 8 7 8 8 7 7 6 6 6 5 6 6 7 7 7 6 6 6 6 5 6 7 7 8 8 9 9 9 9 8 8 9 9 8 8 8 8
8 8 7 6 5 4 3 3 3 3 4 6 7 8 8 9 9 9 9 11 12 11 11 10 10 12 13 13 12 10 8 6 5 3 1 3 2 2 1 1 2 3 5 6 8 10 11 11 9 8 9 9 9 9 7 7 6 6 7 7 7 8 8 8 8 8 8 7 8 8 8 9 9 9 9 9 9 9 9 9 9 9 9 8 8
8 8 7 6 5 3 2 3 4 5 6 7 8 8 9 9 10 10 8 10 11 10 10 9 9 10 11 12 12 9 8 6 5 3 2 4 3 3 3 3 2 3 3 4 6 8 9 10 10 10 10 10 10 10 9 9 8 8 8 8 8 8 9 9 9 10 11 10 10 10 10 10 11 11 10 10 11 11 11 9 9 10 9 8 9
9 8 7 6 4 3 2 4 5 6 7 7 8 8 8 9 9 9 8 8 8 8 8 8 8 9 10 11 10 8 7 5 3 2 1 3 4 4 4 4 4 4 4 4 5 6 7 7 8 8 8 8 7 7 7 9 10 10 10 9 9 9 9 9 10 11 12 12 12 11 12 13 13 13 12 13 14 13 11 10 11 11 9 8 10
10 9 7 6 4 4 4 5 6 6 7 7 8 7 7 7 6 6 7 7 7 7 7 8 8 8 8 9 9 8 7 5 4 2 1 2 4 4 5 5 5 6 6 5 5 6 6 6 6 6 6 6 5 5 5 6 9 11 12 11 11 11 10 10 11 11 12 12 12 12 13 14 15 15 15 16 17 15 13 13 13 11 9 9 11
10 9 8 7 5 5 5 6 7 7 7 7 7 6 5 4 5 6 7 7 7 8 8 8 8 8 7 7 9 9 8 6 4 3 3 2 3 4 5 6 6 7 7 8 8 8 7 7 7 7 7 7 6 6 6 6 9 11 13 13 12 12 12 12 12 13 13 12 13 13 14 14 16 16 17 19 19 17 16 18 16 13 12 12 12
11 9 8 8 6 5 6 6 7 7 7 6 5 3 2 4 5 6 7 7 8 8 9 9 8 8 7 8 9 9 8 6 4 3 3 2 2 4 4 4 5 5 6 7 8 9 9 8 8 8 8 8 8 7 7 7 8 10 11 13 13 13 14 14 14 14 14 13 14 14 15 16 16 15 16 18 20 19 18 19 19 17 16 15 15
12 10 9 8 6 6 6 7 8 7 6 4 2 1 4 6 6 7 8 8 8 9 10 10 9 9 9 9 9 9 8 7 4 3 3 2 0 2 2 3 4 4 4 5 7 8 9 8 8 8 8 9 9 8 8 7 8 10 11 13 13 13 14 14 14 14 14 14 14 14 15 16 16 15 16 17 18 19 19 19 19 19 18 17 17
12 11 10 8 7 7 7 8 7 5 3 2 2 5 6 7 8 8 8 9 9 10 10 10 9 10 9 9 9 9 9 8 6 4 4 3 2 2 3 3 4 3 2 3 4 6 7 8 9 9 9 9 10 9 9 8 9 10 12 13 14 14 14 13 13 12 13 14 13 13 14 16 16 16 17 17 17 17 18 18 19 19 18 18 18
13 12 10 8 8 8 8 8 5 3 3 4 5 7 8 9 9 9 8 9 9 9 9 9 9 9 9 9 9 9 9 9 7 5 5 5 5 6 6 5 3 2 2 2 2 2 3 6 7 8 9 9 9 10 10 10 10 10 11 12 14 15 16 16 15 15 15 15 15 14 15 17 16 16 17 17 17 17 17 17 17 18 18 17 18
14 13 11 9 9 8 8 7 5 4 5 7 8 9 9 8 8 8 7 7 8 8 8 8 8 9 9 9 9 9 10 9 8 7 7 7 7 8 8 7 5 4 5 5 4 2 1 2 4 5 7 7 8 9 9 10 10 10 10 11 12 14 15 16 17 17 18 18 18 18 18 18 18 18 18 18 18 18 17 17 18 18 17 17 18
15 13 12 10 9 9 8 7 6 6 7 9 10 9 9 8 7 7 6 7 7 8 8 8 8 8 9 9 9 9 10 10 9 8 8 8 9 9 9 8 7 6 6 7 6 5 4 3 3 4 4 6 7 8 8 9 10 10 10 10 11 11 12 13 14 16 17 18 19 19 19 19 19 20 20 19 19 19 19 19 19 19 18 18 19
15 14 12 11 10 9 8 7 8 9 9 10 10 9 8 7 6 6 6 7 7 8 9 9 9 9 9 8 8 9 9 9 9 9 8 8 9 9 9 9 9 7 6 6 6 6 7 8 9 9 8 7 7 7 8 8 9 9 10 10 11 11 11 12 12 14 15 16 17 17 18 19 20 20 21 21 21 21 21 21 20 20 20 20 20
15 14 12 11 10 9 8 8 10 10 11 11 10 8 7 7 6 5 5 7 8 9 10 11 11 11 10 9 8 8 9 9 9 9 9 8 8 9 9 9 9 8 6 5 5 4 6 7 9 11 12 11 9 7 8 7 7 7 8 9 10 11 12 12 13 13 14 15 16 17 17 18 19 20 21 21 22 21 21 21 21 21 20 21 21
15 13 12 11 10 9 9 10 11 11 12 11 10 8 7 7 5 4 5 7 8 10 11 12 12 12 12 11 10 9 9 9 9 8 8 8 8 9 9 9 9 8 7 6 4 3 4 6 7 9 11 12 11 9 8 7 7 7 7 8 9 10 10 12 13 13 14 14 15 16 17 18 18 19 20 21 21 22 22 21 21 21 21 21 21
15 13 12 11 10 10 10 11 12 12 12 12 10 9 8 7 6 6 6 7 9 10 11 12 13 13 12 12 11 10 9 8 8 8 8 8 8 8 8 9 9 9 8 7 5 3 3 4 6 7 8 10 12 12 11 10 9 8 8 9 10 10 11 12 13 14 14 15 16 16 17 18 19 20 20 21 21 21 22 22 22 22 22 21 21
17 15 13 12 11 11 11 13 13 13 13 12 10 9 8 8 7 7 7 8 9 10 11 12 13 13 13 12 11 10 9 8 7 7 7 7 7 7 7 7 8 9 9 8 7 4 3 3 5 7 8 9 11 12 13 13 14 13 12 11 11 12 13 14 15 16 16 17 18 18 19 20 20 21 21 21 22 22 22 22 22 22 22 22 22
19 17 14 13 11 11 13 14 14 13 13 12 11 10 9 8 7 6 6 7 8 9 11 12 13 13 13 13 12 11 9 8 7 6 6 6 6 6 6 6 7 7 8 8 8 6 4 3 5 6 7 9 11 12 13 14 15 16 15 14 14 14 15 16 17 17 18 19 19 20 21 21 22 22 22 22 22 22 22 22 22 22 22 22 22
19 16 14 12 11 12 14 15 15 15 15 13 12 11 10 9 7 4 4 6 7 8 9 10 11 12 13 12 12 11 10 9 8 7 6 6 5 5 5 5 5 6 7 7 7 6 5 4 5 6 7 8 10 11 13 14 16 16 16 16 15 15 16 17 18 19 19 20 20 21 21 22 22 22 23 23 23 22 22 22 22 22 22 22 22
19 17 15 14 13 14 16 17 17 17 16 15 13 12 10 9 8 5 3 3 3 4 7 8 9 11 11 11 11 10 10 9 9 8 7 7 7 6 5 4 4 5 5 5 5 6 6 6 6 7 8 9 10 11 12 14 15 16 16 15 15 15 17 18 19 19 19 20 20 20 21 22 22 22 22 23 23 23 22 22 22 22 22 22 22
20 19 17 16 15 16 18 18 18 18 18 16 14 13 11 10 8 6 4 3 2 2 4 6 8 10 10 11 10 10 9 9 8 8 8 8 7 7 6 6 5 4 4 5 6 7 7 7 7 8 8 9 10 11 13 14 15 16 17 16 15 16 17 18 19 19 19 20 20 20 20 21 22 22 22 22 22 22 23 23 22 22 22 22 22
21 21 20 18 18 18 20 20 20 20 19 17 15 14 12 10 9 7 7 6 5 5 6 7 8 9 10 10 10 10 10 9 9 8 8 8 7 7 7 7 7 6 5 6 7 7 8 8 8 9 10 10 10 10 12 15 16 18 18 17 16 16 17 18 19 19 19 20 21 22 22 22 22 22 22 23 22 22 22 23 24 24 24 23 23
23 22 21 20 20 21 21 21 22 21 20 19 17 15 13 11 10 9 9 8 7 7 8 8 9 10 10 10 10 10 10 10 10 9 9 8 7 7 7 7 8 8 8 8 8 8 8 9 9 10 11 11 11 11 12 14 17 18 19 18 16 16 17 18 19 19 19 20 21 22 23 24 24 24 23 23 23 23 23 23 23 24 24 24 24
23 24 23 23 22 23 23 23 23 22 21 19 18 16 14 13 12 11 11 9 8 9 10 10 11 11 11 11 10 10 10 9 9 10 10 10 9 8 8 8 9 9 10 10 10 9 10 10 11 12 12 12 12 12 13 14 16 18 19 19 17 17 17 18 19 19 19 19 20 21 23 24 25 25 25 24 24 24 24 24 24 24 24 24 24
24 25 25 25 24 25 25 24 24 22 21 20 18 17 16 14 14 13 12 10 9 10 11 11 12 12 12 12 12 11 11 10 10 10 11 11 11 10 10 11 11 11 12 13 11 11 12 13 14 14 14 13 13 13 13 14 16 18 19 20 19 19 20 20 20 20 19 19 20 21 22 24 25 25 26 26 25 25 25 25 25 25 25 25 25
25 26 27 26 26 26 26 26 25 23 21 20 19 18 17 15 14 14 12 11 9 10 11 12 12 13 13 13 13 13 13 12 11 11 11 12 13 13 12 13 14 14 15 16 14 12 13 14 15 16 15 14 14 14 14 15 16 18 19 20 21 22 22 22 22 21 20 20 21 22 24 25 25 26 27 27 27 26 26 25 26 26 25 25 25
26 27 28 27 27 27 27 27 25 23 22 21 20 19 18 16 15 14 14 12 11 11 12 13 13 14 15 14 14 14 15 15 14 14 13 13 14 14 15 15 16 16 18 19 17 15 15 15 16 17 17 16 16 16 16 16 18 19 19 21 22 23 24 24 23 22 22 22 23 24 25 26 27 28 28 29 29 28 27 27 26 27 27 26 26
27 28 28 28 28 28 28 27 26 24 23 22 21 20 18 16 15 15 14 14 13 13 13 14 14 16 17 17 16 16 16 17 16 16 16 15 15 16 16 16 17 18 19 20 20 19 17 18 19 19 19 19 18 18 18 18 19 19 20 22 23 23 24 25 25 24 23 24 25 26 27 28 29 30 29 29 30 30 30 30 29 29 28 28 28
28 29 29 29 29 29 29 28 26 25 24 23 22 21 19 17 16 15 15 15 14 15 15 15 16 18 19 19 18 17 18 18 18 17 17 17 17 17 17 18 18 19 19 20 21 21 20 20 21 21 21 22 21 20 21 21 21 21 21 23 23 24 25 26 26 25 25 26 27 29 30 31 32 33 32 31 30 31 31 32 32 32 32 31 31
29 29 30 30 30 30 30 29 27 26 24 23 23 21 19 17 16 16 16 15 16 16 16 16 17 19 20 20 19 19 19 20 19 19 18 17 17 17 18 19 19 19 20 21 21 22 22 21 21 22 23 23 23 22 22 23 24 24 24 24 24 25 26 27 27 27 28 29 30 31 32 32 33 34 34 34 33 33 33 33 34 34 34 34 34
30 30 31 32 32 31 30 29 28 26 25 24 23 21 19 18 17 16 16 16 17 17 17 18 18 20 21 20 20 20 21 21 21 20 19 17 16 17 19 20 20 20 21 24 23 21 21 20 21 23 24 25 25 24 24 25 25 26 26 26 26 26 28 28 29 29 30 31 31 32 32 33 34 34 35 35 36 37 37 36 35 34 34 35 35
31 31 32 33 33 32 31 29 28 27 26 25 23 22 20 19 18 18 18 18 18 18 18 19 20 20 21 21 21 21 21 22 23 22 21 20 18 18 19 20 21 21 23 24 24 22 21 22 23 24 25 26 27 27 26 27 27 27 27 27 28 29 29 29 29 30 30 30 30 31 32 33 34 35 36 36 36 37 36 35 35 33 33 34 35
32 32 33 33 34 33 31 31 30 28 27 26 25 23 21 20 19 19 20 19 19 19 19 20 21 21 22 23 22 21 20 21 23 23 23 22 20 19 19 20 21 23 24 24 25 24 23 24 25 26 27 29 30 29 28 29 30 30 30 29 29 29 30 30 30 30 30 30 30 31 32 33 33 34 34 34 33 33 33 32 32 32 33 34 35
34 34 34 34 34 34 33 32 31 31 30 28 26 24 22 21 21 21 21 20 20 20 20 21 23 23 24 24 21 20 19 20 23 24 24 24 23 21 21 21 21 23 24 24 25 25 25 25 26 27 30 32 32 31 31 31 32 33 33 31 29 27 29 31 31 30 30 30 32 32 30 30 31 32 33 32 30 31 31 31 31 31 33 36 36
35 35 35 35 36 36 36 34 33 33 33 31 27 25 24 23 22 22 21 21 21 21 22 23 24 24 24 23 20 19 19 19 22 24 24 24 24 23 22 23 23 24 25 24 25 26 26 27 27 29 32 34 33 33 33 33 34 34 33 33 31 29 28 29 30 30 31 32 33 32 28 29 30 31 32 32 31 31 32 31 32 32 34 36 37
35 36 36 37 38 38 38 37 35 35 35 32 28 26 25 24 24 23 23 23 23 23 24 25 25 25 25 22 20 20 21 20 21 23 24 25 25 23 23 25 25 26 27 26 26 26 27 28 28 31 34 34 34 35 34 34 35 34 33 33 33 32 31 32 31 30 32 34 35 32 29 29 32 33 32 33 33 34 35 34 33 34 34 35 37
35 37 37 38 39 40 39 38 37 37 36 33 29 28 27 26 25 25 25 25 25 25 26 27 27 25 24 22 21 20 21 22 22 23 25 25 25 25 25 26 26 27 28 28 27 27 29 29 30 33 35 35 35 36 35 35 34 34 33 33 34 34 34 35 34 31 32 35 36 35 32 31 33 35 34 33 35 36 36 35 34 34 35 35 36
35 37 39 39 40 40 40 39 39 38 37 33 30 29 29 28 27 26 27 27 27 27 28 29 28 26 24 23 22 20 20 22 23 24 26 26 25 27 27 27 27 28 28 28 28 28 30 31 33 34 36 36 35 35 35 34 33 33 33 33 34 34 34 34 34 34 34 35 36 37 35 33 35 37 37 35 36 36 35 34 34 34 34 35 36
35 38 40 40 41 41 41 40 40 39 37 33 32 31 30 29 28 28 29 29 29 29 29 30 29 27 25 24 22 21 21 22 22 23 25 26 26 28 29 28 27 26 26 26 27 28 30 32 33 34 35 35 34 33 33 33 32 31 31 31 32 32 33 33 34 35 35 36 37 39 39 36 37 39 38 35 35 34 33 32 32 33 33 33 34
37 38 40 41 42 42 42 42 41 40 37 34 33 33 32 30 30 31 32 31 31 30 30 30 29 27 27 25 22 21 22 23 21 21 24 26 28 28 28 27 26 24 25 26 27 28 30 32 32 33 34 34 33 32 32 31 30 29 29 29 30 31 33 34 35 35 35 37 39 42 42 39 38 38 36 33 32 32 31 31 31 31 31 31 31
38 38 39 41 42 42 42 43 42 41 38 36 35 34 33 31 31 33 34 34 33 31 31 31 29 28 28 26 22 20 22 24 24 23 24 27 29 29 27 26 25 24 25 26 27 28 29 30 31 32 33 32 31 31 30 29 29 29 29 30 30 32 33 34 35 36 37 38 39 41 42 40 38 37 34 31 30 30 28 28 28 28 29 29 28
38 39 40 41 42 43 43 43 42 41 39 37 36 34 33 33 34 35 36 36 34 32 31 31 30 29 29 29 25 22 22 25 26 26 27 28 29 29 28 27 26 26 27 27 27 27 28 29 30 31 31 30 29 28 28 28 28 29 30 31 32 33 35 36 37 37 37 37 37 39 40 37 35 34 32 29 28 27 25 25 26 26 27 27 27
40 41 41 41 42 43 44 43 43 42 41 38 36 35 34 35 36 37 38 37 36 33 31 31 31 31 30 30 30 27 25 25 26 27 28 28 29 29 28 27 28 29 28 27 27 27 27 28 29 29 29 28 27 27 27 28 29 30 31 32 33 35 37 38 38 37 36 35 34 35 36 33 31 31 30 28 26 24 23 23 24 25 26 26 27
41 41 41 41 42 43 44 43 42 42 41 39 36 35 36 37 38 39 39 38 37 34 32 32 32 32 31 31 31 29 27 25 25 27 28 27 27 28 28 28 29 29 28 28 27 26 27 27 28 27 26 25 26 27 28 29 30 31 33 34 35 36 37 37 37 36 34 32 31 32 32 30 29 29 30 29 26 23 22 24 24 24 26 27 27
43 43 43 43 43 44 44 43 42 42 41 40 38 37 38 39 40 41 41 40 37 34 33 33 33 33 32 32 31 29 26 25 25 26 28 28 28 28 29 28 27 27 28 28 27 25 26 26 25 24 24 26 27 28 29 30 31 32 34 35 35 35 35 35 35 34 32 29 29 30 29 28 28 29 30 31 29 24 22 23 24 24 25 27 27
Wind_Direction
152 161 192 235 227 254 281 322 344 336 338 337 330 336 348 351 357 4 4 2 1 357 355 352 351 350 354 7 8 353 338 338 358 6 354 313 239 211 205 207 207 207 213 209 200 202 199 215 241 249 247 239 264 298 93 91 347 90 158 177 195 204 200 197 201 208 213 213 218 225 221 215 218 214 209 213 218 220 220 228 211 202 215 228 247
186 195 211 230 233 238 252 283 306 318 325 330 332 338 346 348 351 357 357 353 353 351 349 347 349 350 350 359 8 360 333 323 339 353 358 4 18 182 196 202 192 186 201 209 206 206 210 218 221 229 248 264 266 272 219 210 297 2 194 181 190 203 212 216 212 212 217 221 221 217 217 221 225 220 214 213 216 233 244 246 239 233 242 253 263
199 209 220 226 231 236 246 270 289 307 322 326 333 336 341 346 344 346 348 347 348 345 339 338 343 351 351 352 0 360 330 314 321 334 359 21 38 97 161 191 183 173 186 208 216 210 213 220 216 216 225 230 237 255 270 250 246 265 244 209 208 209 215 221 220 220 221 225 225 220 220 224 227 226 227 234 238 246 261 270 263 259 258 266 275
202 214 223 227 233 239 246 264 282 300 320 325 330 332 336 341 338 336 338 339 342 340 335 334 335 344 352 352 353 353 326 305 309 323 356 26 36 58 103 167 177 175 178 196 219 220 222 223 217 216 218 224 227 236 259 262 248 252 258 246 233 236 237 229 224 225 226 229 230 228 227 226 227 228 232 242 247 246 251 263 267 267 265 265 271
204 214 224 229 232 240 249 257 270 301 324 326 330 332 333 333 331 329 329 333 338 335 333 333 329 333 344 350 349 345 318 295 298 309 347 30 43 48 63 143 173 182 179 188 211 223 228 231 230 227 225 229 231 236 250 258 256 254 260 261 246 238 241 238 239 243 238 237 235 233 232 230 229 231 235 241 245 246 243 247 253 257 261 265 269
208 214 222 228 231 241 252 256 270 307 320 320 325 328 328 328 328 328 327 329 334 333 329 329 325 327 336 342 343 339 311 283 284 289 324 62 64 57 53 132 180 188 185 189 206 219 226 232 240 244 241 238 237 243 248 245 249 250 253 257 250 244 244 241 240 248 252 252 247 241 238 236 236 237 239 241 243 244 241 241 245 247 251 259 267
214 219 224 228 235 247 255 262 283 305 310 315 320 322 323 324 326 327 320 319 327 331 326 321 318 321 329 335 338 335 317 283 268 263 228 101 96 82 76 132 178 185 188 193 202 213 224 229 234 243 250 251 246 246 248 244 244 249 254 256 251 246 247 248 242 241 247 256 262 260 255 251 247 243 243 246 246 247 246 245 246 248 250 255 261
219 224 230 234 242 254 263 279 294 304 312 317 320 318 317 319 320 320 315 311 316 324 325 321 316 319 325 329 334 335 326 306 279 255 163 123 140 179 190 182 179 182 184 192 202 210 222 230 231 233 243 252 254 253 253 251 249 251 253 254 254 251 250 251 249 247 248 249 255 260 263 264 261 255 249 247 248 250 252 251 252 254 255 257 262
223 227 231 236 246 255 268 285 293 303 313 318 318 314 312 314 311 310 310 306 306 315 325 330 328 326 326 325 330 336 334 329 308 285 146 142 171 205 232 224 215 217 203 198 206 212 221 230 233 233 237 244 252 260 261 257 255 255 254 254 255 253 252 254 254 252 254 252 250 252 257 262 266 267 262 258 254 251 254 258 263 264 260 261 265
226 228 233 239 243 251 266 281 289 302 313 313 309 306 305 307 306 308 316 318 317 323 333 343 344 334 329 326 332 342 345 352 349 324 158 170 193 208 235 242 234 234 231 222 218 219 223 228 230 231 231 231 236 253 259 254 253 254 255 256 254 252 253 259 263 260 259 258 255 254 257 258 260 263 264 265 263 260 262 265 264 266 266 267 271
226 228 235 241 240 253 270 280 290 301 308 303 298 300 300 305 317 328 341 349 349 351 357 2 358 347 342 336 343 360 2 7 30 57 147 212 226 219 229 240 242 241 239 239 232 222 221 225 229 226 223 224 223 231 238 239 245 251 256 256 254 254 254 253 257 260 260 261 260 257 257 258 257 257 258 263 267 267 268 264 259 260 261 259 262
226 230 234 238 239 255 271 280 291 299 298 294 291 293 303 336 1 4 8 14 12 15 20 18 12 6 2 356 3 19 24 24 43 88 131 200 243 242 240 241 246 250 247 245 239 230 226 227 233 233 234 239 238 233 232 229 233 241 250 255 257 260 260 256 255 257 257 260 263 262 260 260 260 260 260 262 266 267 265 265 263 259 260 261 260
228 230 232 236 242 256 271 280 290 295 291 284 282 292 13 34 30 30 32 33 30 33 34 32 30 25 21 18 23 32 42 47 51 78 111 155 231 248 252 258 261 259 254 248 240 235 233 234 237 241 245 251 253 248 245 241 238 237 240 248 256 261 262 262 262 261 260 260 262 265 266 266 267 269 267 265 266 265 263 264 262 258 260 265 266
230 231 232 237 245 257 270 280 288 291 282 269 270 64 72 63 54 54 55 54 52 51 48 45 43 42 37 31 34 39 49 58 56 51 61 69 269 255 268 300 300 283 261 252 244 239 240 244 248 252 254 258 259 257 255 251 247 241 238 241 246 251 257 262 264 264 264 262 259 262 267 268 270 271 270 267 265 265 264 265 264 260 261 264 266
231 233 235 239 245 258 269 278 284 282 257 200 122 98 91 82 75 71 70 69 65 61 56 51 49 49 46 40 39 40 45 54 54 41 29 21 7 353 5 353 325 307 278 263 252 242 240 244 251 258 263 266 268 267 266 263 257 250 245 243 240 242 250 258 262 263 262 262 260 260 263 264 265 266 268 268 266 265 265 266 268 265 262 263 264
232 233 235 238 245 255 265 273 273 245 185 143 123 112 101 93 87 81 78 75 68 63 57 51 47 46 43 39 39 38 39 45 47 36 21 12 8 9 20 21 358 336 342 341 309 258 239 241 249 259 267 271 274 275 276 274 270 265 258 253 248 245 246 249 254 256 258 261 262 262 261 262 264 264 265 267 267 266 266 266 268 267 264 264 265
233 233 233 236 244 253 262 266 248 201 165 138 128 119 110 104 95 87 79 71 64 55 48 44 41 40 38 31 29 30 32 38 39 32 22 15 11 12 21 25 21 16 17 21 28 38 38 249 257 268 276 281 278 274 274 274 272 271 268 264 260 256 253 253 255 256 257 259 262 263 262 262 264 265 265 265 266 267 267 266 266 266 266 266 267
234 233 233 235 242 250 258 252 218 182 159 143 135 127 120 113 101 91 78 65 55 45 39 37 35 33 33 29 24 25 32 38 37 31 24 17 12 11 13 18 24 28 25 26 26 21 10 349 331 321 316 312 299 283 272 269 270 272 272 271 267 264 262 261 261 261 261 261 262 263 263 263 264 266 268 268 268 268 269 268 266 267 267 265 265
233 233 232 234 238 246 249 229 197 174 158 148 143 136 128 117 107 97 79 62 54 48 45 43 42 38 35 32 29 28 34 41 40 34 27 19 13 10 8 9 12 19 26 27 20 5 354 348 343 339 341 340 326 308 291 279 275 275 276 276 274 272 268 267 267 267 268 268 268 267 266 267 267 268 269 269 270 269 269 269 268 268 267 265 264
231 233 230 230 234 242 235 206 186 173 161 154 150 144 131 120 110 96 78 68 60 53 49 47 48 47 44 42 40 38 38 42 42 39 32 25 17 11 7 4 2 5 14 23 23 5 345 340 334 331 333 336 337 327 311 301 293 286 282 278 276 277 277 277 276 275 276 276 276 276 274 273 271 270 269 269 270 270 269 269 269 269 268 267 267
231 230 227 225 229 234 219 193 182 174 165 161 158 150 134 123 112 97 86 77 67 55 49 49 49 48 49 50 51 51 47 44 41 37 33 28 20 13 6 0 357 359 3 7 16 8 332 325 324 322 322 325 329 327 317 306 299 296 293 288 285 284 283 284 284 283 283 283 283 283 283 282 280 277 274 272 272 271 271 270 270 269 269 269 269
230 227 225 223 226 227 209 189 184 177 170 167 162 154 141 129 117 109 101 86 72 61 52 49 48 47 47 48 50 52 53 50 41 33 29 23 17 12 4 359 356 356 356 355 2 4 333 320 318 315 311 311 315 317 316 310 304 301 298 297 297 297 295 292 291 290 289 288 288 287 287 286 285 283 281 279 277 276 274 273 271 270 269 268 268
227 224 223 222 224 221 203 190 186 181 176 173 167 158 152 142 126 113 101 87 75 63 54 49 47 44 42 42 42 43 47 48 43 33 27 21 15 10 3 359 356 351 348 350 353 351 337 321 311 308 305 302 303 306 310 310 309 308 305 301 298 298 299 298 296 294 293 293 291 290 288 287 285 284 283 281 280 278 277 276 275 273 271 269 268
226 222 221 223 223 216 200 191 189 186 183 181 174 165 163 159 142 116 95 86 77 63 54 46 41 38 36 35 33 32 33 34 33 25 20 16 9 6 360 355 354 346 341 347 352 352 346 323 301 298 298 298 299 301 304 305 306 307 306 302 300 298 297 296 295 294 293 292 291 289 288 287 287 286 285 283 281 279 278 276 275 275 274 272 270
227 223 221 224 223 212 199 192 191 191 190 187 182 176 174 174 167 143 102 92 82 63 50 40 35 30 27 25 22 22 22 22 20 13 8 4 356 354 350 345 348 344 340 346 353 354 344 318 300 298 296 292 294 298 301 303 303 303 302 300 299 297 295 294 294 293 292 291 291 290 289 289 288 288 288 286 284 282 279 277 275 274 274 274 273
224 221 220 221 219 210 200 195 195 195 194 192 188 186 184 185 186 180 149 119 94 61 40 26 22 19 16 13 10 8 9 10 12 8 4 1 352 341 331 326 331 334 337 342 346 340 327 313 306 304 299 295 297 300 300 301 300 298 296 294 293 292 292 294 295 296 297 297 296 296 296 295 294 292 290 288 286 284 282 279 277 275 274 274 274
218 217 216 217 214 208 201 197 198 199 197 196 195 195 195 195 196 200 206 218 248 341 1 360 0 3 4 2 358 355 353 353 357 1 360 359 354 340 324 316 313 315 323 332 333 326 317 312 307 300 294 292 297 302 303 301 298 295 292 289 287 289 291 295 298 300 300 301 301 302 302 302 302 299 295 291 287 285 283 281 280 278 276 275 274
214 213 212 213 211 207 203 200 201 201 199 200 201 203 206 205 206 215 228 240 260 289 314 327 336 346 351 351 348 344 341 339 339 344 347 351 352 345 327 312 306 304 307 319 325 321 314 310 304 298 293 291 294 299 303 303 300 297 293 289 286 286 291 297 301 303 303 303 304 304 305 306 307 305 301 296 292 288 285 282 281 280 279 277 276
213 210 209 211 209 206 204 203 204 203 201 202 205 209 212 213 217 227 238 247 261 279 296 306 313 327 337 339 336 332 330 329 326 328 331 334 337 338 328 313 304 298 295 301 309 310 307 304 301 301 298 297 298 301 303 301 300 299 298 294 289 286 291 297 301 304 305 306 305 305 306 307 308 308 305 301 296 292 288 285 282 281 281 281 280
214 210 208 209 208 206 205 206 207 206 203 204 208 213 216 220 226 235 244 254 268 279 288 297 303 312 322 325 323 320 319 317 315 316 317 317 318 317 315 308 299 291 286 288 295 301 300 301 306 311 312 309 306 304 303 298 296 296 298 299 294 290 291 295 299 302 306 307 308 309 309 309 309 309 308 304 300 295 291 288 286 283 282 281 281
217 212 209 208 206 205 205 207 209 207 205 206 210 214 218 223 231 239 249 260 271 278 284 291 297 304 312 315 314 312 310 308 306 305 303 304 306 304 304 300 294 288 284 283 288 293 296 301 308 313 315 314 308 302 298 294 291 292 296 300 298 293 292 294 296 301 306 310 312 314 314 313 311 310 308 306 302 298 295 292 291 289 287 286 284
218 214 211 209 206 205 206 208 209 208 206 207 211 214 218 224 232 241 252 261 270 276 281 288 294 300 304 307 307 306 304 304 302 298 295 294 296 297 297 294 290 287 285 283 284 283 286 293 298 302 308 313 311 305 298 294 291 290 293 297 297 293 292 293 295 300 305 308 312 316 317 316 313 310 308 306 303 301 298 296 295 294 292 291 290
219 215 213 211 208 206 207 208 209 208 207 209 212 216 219 226 233 242 252 260 269 275 279 286 293 297 299 300 302 300 299 300 300 299 294 289 287 289 292 292 289 286 285 284 285 283 283 285 289 295 304 314 316 312 305 299 294 291 291 292 292 292 292 294 296 299 301 303 307 312 314 315 313 311 309 307 306 303 301 299 298 296 296 295 295
220 216 214 212 210 208 207 208 208 208 208 211 216 220 223 228 234 242 251 259 268 274 278 285 290 293 295 297 296 294 293 294 295 296 293 287 284 284 288 291 290 288 286 285 288 290 287 283 286 293 302 310 315 316 311 303 295 291 289 288 288 290 291 293 295 297 297 298 302 305 308 308 308 307 306 306 306 305 303 301 298 296 296 295 295
220 217 215 214 212 209 207 207 206 207 209 214 219 224 227 230 235 243 251 259 266 271 277 282 287 291 293 295 293 289 289 290 289 289 288 286 285 284 286 288 288 288 287 285 288 291 289 284 284 289 297 304 309 313 313 307 297 290 287 286 287 288 290 291 293 293 294 295 299 301 303 304 304 303 302 301 301 302 302 301 300 298 296 296 295
220 217 215 215 214 211 208 206 205 206 209 215 222 227 230 233 238 244 251 256 262 269 274 279 285 289 291 293 291 287 288 289 285 283 281 282 285 285 284 285 285 284 282 283 286 287 287 287 286 285 291 298 302 304 308 307 301 293 288 286 286 286 286 287 289 290 291 293 296 299 301 301 301 301 300 298 298 298 298 298 298 298 297 296 296
219 217 215 215 214 212 209 207 207 207 210 215 221 226 229 234 238 243 248 254 260 266 272 277 282 286 288 289 287 285 289 290 286 282 278 276 280 283 282 281 283 281 276 279 285 287 286 288 286 283 286 291 294 297 301 304 300 293 288 285 283 281 280 281 284 287 289 291 294 297 298 298 298 298 297 296 296 296 295 294 293 294 295 295 294
219 218 216 215 214 213 211 210 210 211 213 217 221 224 228 232 236 240 246 253 260 266 271 276 279 282 285 286 285 288 291 289 286 284 280 274 273 278 282 279 278 277 273 274 281 284 285 285 283 282 284 286 289 292 295 299 299 295 288 282 278 276 276 278 281 285 288 291 293 295 296 298 298 297 296 294 293 294 294 293 289 288 290 292 292
218 218 216 215 215 213 212 213 213 214 216 219 221 224 227 230 234 240 247 254 260 265 269 273 276 278 281 283 287 293 294 289 285 285 284 280 274 277 283 280 275 273 271 271 274 278 281 282 281 280 281 282 284 286 290 295 299 299 291 281 276 277 279 281 283 285 288 291 293 295 298 300 299 298 296 295 294 295 295 293 290 286 286 289 288
218 218 217 216 215 214 213 215 216 217 220 221 222 224 226 230 235 242 250 256 260 264 267 269 271 273 277 283 289 293 292 289 286 286 288 285 279 278 283 284 277 273 270 268 270 273 276 277 277 277 277 279 281 282 286 292 297 299 292 283 280 281 279 280 283 285 287 290 294 298 300 299 297 297 296 296 296 295 293 292 290 287 285 285 285
218 218 217 216 216 215 214 216 218 220 222 222 223 225 227 232 238 246 252 256 260 263 265 266 267 271 276 284 290 290 287 286 287 290 292 289 282 279 282 283 279 274 270 267 266 269 271 273 274 274 275 277 279 279 283 289 294 298 295 288 286 286 281 279 282 286 289 292 294 296 298 297 295 296 297 299 299 297 294 293 290 287 284 283 283
217 219 218 216 216 216 216 217 220 223 224 223 223 224 228 234 240 248 252 256 260 261 263 264 265 269 277 284 287 285 284 285 287 291 292 287 280 278 278 280 281 277 272 268 267 269 271 273 274 273 274 277 279 280 284 289 293 296 296 292 290 290 288 285 285 287 291 294 294 295 297 297 296 296 298 300 301 299 296 295 292 289 286 284 283
218 219 220 218 217 217 218 218 222 225 225 224 223 225 229 235 241 248 252 256 259 260 262 264 263 268 279 283 281 280 284 288 289 288 288 283 278 277 275 275 279 280 275 271 269 270 273 274 274 274 276 279 281 282 284 289 294 297 297 295 293 291 289 288 287 288 291 293 294 295 297 299 298 298 300 301 300 298 296 294 291 288 286 284 282
221 221 222 222 220 219 220 220 223 226 225 224 225 226 231 236 243 249 253 256 258 260 263 264 263 268 278 278 277 281 288 293 290 283 282 282 279 278 276 274 276 279 277 273 272 274 276 275 275 276 278 281 283 284 286 290 295 298 297 295 293 291 288 288 289 290 292 293 294 295 297 300 301 301 303 304 302 299 297 294 291 288 285 283 281
224 224 224 224 223 223 222 222 224 227 225 224 226 228 232 238 244 250 253 255 258 260 265 265 263 269 278 280 282 288 290 292 289 277 275 280 278 275 275 276 277 278 276 275 276 279 279 279 279 279 280 282 285 286 289 292 295 295 294 292 290 289 288 289 290 292 294 296 297 298 300 303 303 302 304 305 302 298 296 294 291 288 285 282 280
226 226 225 225 226 226 225 224 225 226 225 224 226 229 233 239 245 251 254 256 258 261 266 267 264 270 281 283 283 285 288 292 289 276 272 276 275 271 272 275 276 275 276 278 280 281 280 280 282 282 282 283 285 287 290 292 293 292 291 290 288 288 289 291 293 296 298 299 301 302 303 305 305 304 304 303 298 295 295 294 291 287 284 283 281
228 228 227 227 227 228 227 226 226 226 226 226 227 230 234 240 246 251 254 256 258 262 268 267 263 268 282 287 285 283 287 291 288 279 273 274 274 273 274 275 275 275 279 283 286 286 284 284 284 284 283 284 286 288 290 291 291 291 290 290 291 292 293 294 296 298 299 301 303 303 304 306 306 304 303 301 297 295 296 294 291 288 286 285 284
229 228 228 228 228 229 228 227 227 227 227 227 228 230 234 240 247 251 254 257 258 262 267 266 261 265 277 286 290 290 289 289 285 277 273 272 274 276 276 275 276 277 280 284 288 287 286 285 284 283 284 285 287 288 289 289 290 291 291 292 294 295 296 297 298 299 301 303 304 303 303 306 307 306 306 304 300 299 299 295 292 291 290 288 287
229 229 229 230 230 230 229 228 228 228 228 228 229 230 235 241 246 250 254 257 258 261 266 264 259 263 273 282 288 293 295 292 282 273 270 270 272 277 278 276 278 279 280 285 289 287 284 284 284 284 284 286 287 287 288 289 290 291 292 294 296 297 298 299 301 303 305 307 306 304 304 308 310 309 308 306 305 305 303 298 295 294 292 290 287
230 230 231 231 232 232 231 230 229 229 230 230 230 232 236 241 246 249 252 255 257 261 266 264 259 262 271 280 286 293 298 293 279 268 266 268 271 276 276 275 277 277 279 285 289 286 283 283 283 284 284 284 285 286 288 289 290 292 295 297 298 299 301 303 305 307 309 309 307 306 307 311 313 311 309 307 307 308 304 300 297 295 292 289 286
231 231 230 231 233 234 233 232 230 230 231 231 231 234 237 241 244 247 250 253 257 261 266 266 260 261 269 277 284 292 295 288 275 266 263 264 270 274 275 276 277 275 278 285 286 283 282 282 281 281 281 282 284 286 288 290 292 295 297 299 301 303 305 307 308 308 309 310 309 308 310 313 314 313 311 308 307 306 302 298 297 294 291 288 286